Location: Newark
(55.7083°N, 13.1992°E)
Time: 19:38:53
(UTC+00:00)

N. Korean satellite - Pass Details

Date: 31 January 2020
Orbit: 456 x 505 km, 97.2° (Epoch: 22 February)

Event Time Altitude Azimuth Distance (km) Brightness Sun altitude
Rises 04:39:51 0° 19° (NNE) 2,555 10.4 -20.1°
Reaches altitude 10° 04:42:00 10° 27° (NNE) 1,678 9.6 -19.8°
Maximum altitude 04:45:25 40° 98° (E) 733 8.0 -19.3°
Drops below altitude 10° 04:48:53 10° 170° (S) 1,691 9.5 -18.8°
Sets 04:51:03 0° 177° (S) 2,576 10.3 -18.5°
